Miscellaneous Local Product
Issued by NWS North Platte, NE

Home | Current Version | Previous Version | Text Only | Print | Product List | Glossary On
Versions: 1 2 3 4 5 6 7 8 9 10 11 12 13 14 15 16 17 18 19 20 21 22 23 24 25 26 27 28 29 30 31 32 33 34 35 36 37 38 39 40 41 42 43 44 45 46 47 48 49 50
000
AXUS43 KLBF 201810
MISLBF


WESTERN AND NORTH CENTRAL NEBRASKA HOURLY WEATHER ROUNDUP
NATIONAL WEATHER SERVICE NORTH PLATTE NE
100 PM CDT FRI APR 20 2018

NOTE: "FAIR" INDICATES FEW OR NO CLOUDS BELOW 12,000 FEET WITH NO
SIGNIFICANT WEATHER AND/OR OBSTRUCTIONS TO VISIBILITY.

NOTE: STATIONS NOT REPORTING VARIABLES SUCH AS SKY/WEATHER OR
PRESSURE ARE PROVIDED BY RAWS AND APRS NETWORKS AND ARE NOT UNDER
NATIONAL WEATHER SERVICE QUALITY CONTROL.

...OBSERVATIONS IN AND NEAR THE EASTERN PANHANDLE OF NEBRASKA...

CITY           SKY/WX    TMP DP  RH WIND       PRES   REMARKS
PINE RIDGE     LGT RAIN  43  37  79 SE9       30.16R
GORDON         RAIN      41  36  82 SE10      30.17S
CHADRON        CLOUDY    46  36  68 S22       30.11F
ALLIANCE       LGT RAIN  37  36  96 S17G28    30.13R FOG     WCI  27
SIDNEY         LGT SNOW  33  32  96 SE21G32   30.10S VSB 3/4 WCI  21
CRESCENT LAKE    N/A     37  34  90 SE9G20      N/A  WCI  30
$$

...OBSERVATIONS IN NORTHERN NEBRASKA AND FAR SOUTHERN SOUTH DAKOTA...

CITY           SKY/WX    TMP DP  RH WIND       PRES   REMARKS
WINNER         PTSUNNY   48  33  56 SE13      30.27F
VALENTINE      CLOUDY    50  30  46 S20G25    30.23F
AINSWORTH      CLOUDY    49  32  52 S14       30.26R
O`NEILL        CLOUDY    52  34  50 S15G21    30.30F
THEDFORD       CLOUDY    50  32  49 S22       30.24S
BROKEN BOW     CLOUDY    50  32  50 SE20G29   30.25F
ORD            CLOUDY    50  32  50 SE15G22   30.28F
ALBION         CLOUDY    53  32  45 SE18G24   30.31F
VALENTINE NWR    N/A     45  30  55 SE13G21     N/A
HALSEY           N/A     50  30  45 S9G23       N/A
BUTTE            N/A     48  36  63 SE10G20     N/A
CHAMBERS         N/A     53  33  47 S6          N/A
EWING            N/A     53  37  55 S8G15       N/A
$$

...OBSERVATIONS IN SOUTHWEST NEBRASKA AND FAR NORTHEAST COLORADO...

CITY           SKY/WX    TMP DP  RH WIND       PRES   REMARKS
WRAY           LGT RAIN  39  36  87 S20G31    30.14S WCI  30
HOLYOKE        LGT RAIN  41  36  81 SE15      30.15S
IMPERIAL       LGT RAIN  42  33  70 E14       30.18R
OGALLALA       CLOUDY    47  31  54 SE15      30.18S
NORTH PLATTE   CLOUDY    47  32  56 SE12G20   30.21F
MCCOOK         CLOUDY    48  31  51 SE17G28   30.17F
LEXINGTON      CLOUDY    52  32  46 SE20      30.23F
STAPLETON        N/A     44  30  59 E5G12       N/A
GOTHENBURG       N/A     47  30  51 SE15        N/A
CALLAWAY         N/A     47  34  61 SE22        N/A
$$

...OBSERVATIONS IN CENTRAL LINCOLN COUNTY AREA...

CITY           SKY/WX    TMP DP  RH WIND       PRES   REMARKS
N.P. AIRPORT   CLOUDY    47  32  56 SE12G20   30.21F
N.P. DOWNTOWN    N/A     46  33  61 CALM        N/A
N.P. SOUTHEAST   N/A     45  31  58 E7G14       N/A
N.P. HILLCREST   N/A     45  33  62 E12         N/A
$$

...OBSERVATIONS ACROSS THE ROCKIES AND WESTERN HIGH PLAINS...

CITY           SKY/WX    TMP DP  RH WIND       PRES   REMARKS
RAPID CITY     MOSUNNY   56  31  38 S15G23    30.14S
SCOTTSBLUFF    CLOUDY    40  33  76 SE28G35   30.10R WCI  29
CHEYENNE       PTSUNNY   50  28  42 SE24G31   29.95F
DENVER         MOSUNNY   58  30  34 SE24G33   29.89F
BERTHOUD PASS  CLOUDY    23  14  68 S20G32    29.99F WCI   8
MONARCH PASS   CLOUDY    21  21 100 E6        30.05R WCI  14
ASPEN          CLOUDY    37  31  78 VRB3      29.85F
STEAMBOAT      CLOUDY    36  35  96 CALM      29.88F
LARAMIE        PTSUNNY   43  27  53 SE9       29.93S
CASPER         CLOUDY    41  28  60 NE15      30.03R
$$

...OBSERVATIONS ACROSS THE NORTHERN PLAINS...

CITY           SKY/WX    TMP DP  RH WIND       PRES   REMARKS
BISMARCK       PTSUNNY   57  31  37 SE15      30.28F
FARGO          FAIR      53  33  46 S13       30.42S
PIERRE         CLOUDY    51  35  54 SE16      30.27F
SIOUX FALLS    CLOUDY    47  32  56 SE7       30.40F
$$

...OBSERVATIONS ACROSS THE CENTRAL AND SOUTHERN PLAINS...

CITY           SKY/WX    TMP DP  RH WIND       PRES   REMARKS
OMAHA          CLOUDY    58  30  34 SE15      30.38F
GRAND ISLAND   CLOUDY    55  33  43 SE17G26   30.29F
KANSAS CITY    CLOUDY    57  28  33 SE15      30.39F
WICHITA        CLOUDY    62  33  33 SE20G25   30.27F
DODGE CITY     CLOUDY    57  31  37 SE26G40   30.13F
OKLAHOMA CITY  PTSUNNY   62  35  36 SE12G22   30.23F
DALLAS         MOSUNNY   64  35  34 SE12G20   30.24F
AMARILLO       CLOUDY    54  31  41 SE32G43   30.03F
$$




USA.gov is the U.S. government's official web portal to all federal, state and local government web resources and services.